Location: Gulgong NSW 2852, Australia
(32.2976°S, 149.5548°E)
Time: 02:50:08
(UTC+10:00)

Hubble Space Telescope - Visible Passes

Search period start: 16 May 2021 00:00
Search period end: 26 May 2021 00:00
Orbit: 535 x 539 km, 28.5° (Epoch: 14 May)

Date Brightness Start Highest point End Pass type
(mag) Time Alt. Az. Time Alt. Az. Time Alt. Az.
16 May 2.4 18:17:40 10° NW 18:21:02 24° NNE 18:23:01 17° ENE visible
16 May 3.8 19:57:52 10° WNW 19:58:20 13° WNW 19:58:20 13° WNW visible
17 May 2.2 18:06:27 10° NW 18:10:02 28° NNE 18:12:44 15° ENE visible
17 May 3.4 19:46:53 10° WNW 19:48:02 18° WNW 19:48:02 18° WNW visible
18 May 2.0 17:55:19 10° NW 17:59:03 32° NNE 18:02:25 12° ENE visible
18 May 3.0 19:35:55 10° WNW 19:37:44 24° WNW 19:37:44 24° WNW visible
19 May 1.9 17:44:14 10° NW 17:48:04 37° NNE 17:51:56 10° E visible
19 May 2.4 19:24:57 10° WNW 19:27:26 32° WNW 19:27:26 32° WNW visible
20 May 1.7 17:33:10 10° WNW 17:37:06 41° N 17:41:02 10° E visible
20 May 1.9 19:14:01 10° WNW 19:17:08 40° NW 19:17:08 40° NW visible
21 May 1.5 19:03:05 10° W 19:06:52 46° NNW 19:06:52 46° NNW visible
22 May 1.5 18:52:10 10° W 18:56:09 43° N 18:56:39 41° NNE visible
23 May 1.8 18:41:16 10° W 18:45:11 39° N 18:46:29 30° NNE visible
24 May 2.0 18:30:23 10° W 18:34:12 35° NNW 18:36:25 20° NE visible
25 May 2.3 18:19:31 10° WNW 18:23:13 31° NNW 18:26:27 12° NE visible
